This demonstration page uses our WeatherBlox Daily Observations layout. Learn more.

39.29038, -76.61219

Hourly Observations for July 9, 2019

Temp ( °F °C ) Dew Point ( °F °C ) Humidity (%) Winds ( mph kmh ) Pressure ( in mb ) Visibility ( mi km ) Precip ( " mm )
12:54 am 00:54 undefined 72 22.2 65 18.3 79 79 undefined N/A 30 1016 N/A 0 0
1:54 am 01:54 undefined 71 21.7 65 18.3 81 81 undefined N/A 30 1016 N/A 0 0
2:54 am 02:54 undefined 70 21.1 64 17.8 82 82 undefined N/A 30 1016 N/A 0 0
3:54 am 03:54 undefined 70 21.1 64 17.8 82 82 undefined N/A 30.03 1017 N/A 0 0
4:54 am 04:54 undefined 69 20.6 64 17.8 84 84 undefined N/A 30.03 1017 N/A 0 0
5:54 am 05:54 undefined 69 20.6 63 17.2 81 81 undefined N/A 30.03 1017 N/A 0 0
6:54 am 06:54 undefined 72 22.2 63 17.2 73 73 undefined N/A 30.06 1018 N/A 0 0
7:54 am 07:54 undefined 74 23.3 64 17.8 71 71 undefined N/A 30.06 1018 N/A 0 0
8:54 am 08:54 undefined 77 25 63 17.2 62 62 undefined N/A 30.09 1019 N/A 0 0
9:54 am 09:54 undefined 80 26.7 65 18.3 60 60 undefined N/A 30.06 1018 N/A 0 0
10:54 am 10:54 undefined 85 29.4 68 20 57 57 undefined N/A 30.06 1018 N/A 0 0
11:54 am 11:54 undefined 86 30 67 19.4 53 53 undefined N/A 30.06 1018 N/A 0 0
12:54 pm 12:54 undefined 85 29.4 67 19.4 55 55 undefined N/A 30.06 1018 N/A 0 0
1:54 pm 13:54 undefined 85 29.4 67 19.4 55 55 undefined N/A 30.06 1018 N/A 0 0
2:54 pm 14:54 undefined 87 30.6 68 20 53 53 undefined N/A 30.06 1018 N/A 0 0
3:54 pm 15:54 undefined 87 30.6 68 20 53 53 undefined N/A 30.03 1017 N/A 0 0
4:54 pm 16:54 undefined 85 29.4 67 19.4 55 55 undefined N/A 30.03 1017 N/A 0 0
5:54 pm 17:54 undefined 84 28.9 68 20 59 59 undefined N/A 30.03 1017 N/A 0 0
6:54 pm 18:54 undefined 85 29.4 68 20 57 57 undefined N/A 30 1016 N/A 0 0
7:54 pm 19:54 undefined 83 28.3 68 20 61 61 undefined N/A 30.03 1017 N/A 0 0
8:54 pm 20:54 undefined 82 27.8 67 19.4 60 60 undefined N/A 30.03 1017 N/A 0 0
9:54 pm 21:54 undefined 80 26.7 68 20 67 67 undefined N/A 30.06 1018 N/A 0 0
10:54 pm 22:54 undefined 78 25.6 68 20 71 71 undefined N/A 30.06 1018 N/A 0 0
11:54 pm 23:54 undefined 78 25.6 67 19.4 69 69 undefined N/A 30.06 1018 N/A 0 0

Powered by AerisWeather